Glasgow, MT

4:00 AM MST on December 09, 2016 (GMT -0700)
Wokal-Glasgow International

Weather History for KGGW - August, 2014

Change the Weather History Date:

Friday, August 8, 2014

  Actual Average Record
Temperature  
Mean Temperature 79 °F 72 °F  
Max Temperature 97 °F 87 °F 102 °F (1970)
Min Temperature 61 °F 58 °F 37 °F (1927)
Degree Days  
Heating Degree Days 0 0  
Month to date heating degree days 0 0  
Since 1 June heating degree days 112 123  
Since 1 July heating degree days 4 18  
Cooling Degree Days 14 8  
Month to date cooling degree days 83 64  
Year to date cooling degree days 354 363  
Since 1 June cooling degree days 320 346  
Growing Degree Days 29 (Base 50)    
Moisture  
Dew Point 50 °F    
Average Humidity 40    
Maximum Humidity 63    
Minimum Humidity 17    
Precipitation  
Precipitation 0.00 in 0.05 in 0.76 in (1994)
Month to date precipitation 0.29 0.36  
Year to date precipitation 6.52 8.29  
Snow  
Snow 0.00 in 0.00 in T in (1994)
Month to date snowfall 0.0 0.0  
Since 1 June snowfall 0.0 0.0  
Since 1 July snowfall 0.0 0.0  
Snow Depth 0.00 in    
Sea Level Pressure  
Sea Level Pressure 29.83 in    
Wind  
Wind Speed 7 mph (SE)    
Max Wind Speed 15 mph    
Max Gust Speed 18 mph    
Visibility 10 miles    
Events Thunderstorm    
T = Trace of Precipitation, MM = Missing Value Source: NWS Daily Summary

Daily Weather History Graph

Daily Weather History Graph

Search for Another Location

Airport or City:

Trip Planner

Search our weather history database for the weather conditions in past years. The results will help you decide how hot, cold, wet, or windy it might be!

Date:

Astronomy

Aug. 08, 2014 Rise Set
Actual Time 5:51 AM MDT 8:31 PM MDT
Civil Twilight 5:15 AM MDT 9:07 PM MDT
Nautical Twilight 4:30 AM MDT 9:52 PM MDT
Astronomical Twilight 3:37 AM MDT 10:44 PM MDT
Moon 6:47 PM MDT (8/8) 3:23 AM MDT (8/8)
Length of Visible Light 15h 51m
Length of Day
14h 40m
Waxing Gibbous, 94% of the Moon is Illuminated
Aug 8
Waxing Gibbous
Aug 10
Full
Aug 17
Last Quarter
Aug 25
New
Sep 2
First Quarter

Hourly Weather History & Observations

Time (MDT) Temp. Dew Point Humidity Pressure Visibility Wind Dir Wind Speed Gust Speed Precip Events Conditions
12:53 AM 70.0 °F 55.0 °F 59% 29.82 in 10.0 mi SE 9.2 mph - N/A   Clear
1:53 AM 68.0 °F 54.0 °F 61% 29.83 in 10.0 mi SE 6.9 mph - N/A   Clear
2:53 AM 66.0 °F 54.0 °F 65% 29.82 in 10.0 mi ESE 10.4 mph - N/A   Clear
3:53 AM 66.9 °F 53.1 °F 61% 29.83 in 10.0 mi ESE 9.2 mph - N/A   Clear
4:53 AM 66.0 °F 53.1 °F 63% 29.84 in 10.0 mi East 3.5 mph - N/A   Clear
5:53 AM 62.1 °F 48.9 °F 62% 29.85 in 10.0 mi East 8.1 mph - N/A   Clear
6:53 AM 64.0 °F 48.9 °F 58% 29.86 in 10.0 mi South 4.6 mph - N/A   Clear
7:53 AM 71.1 °F 51.1 °F 49% 29.87 in 10.0 mi Calm Calm - N/A   Clear
8:53 AM 75.9 °F 53.1 °F 45% 29.87 in 10.0 mi ESE 6.9 mph - N/A   Clear
9:53 AM 80.1 °F 51.1 °F 36% 29.87 in 10.0 mi ENE 3.5 mph - N/A   Clear
10:53 AM 84.9 °F 50.0 °F 30% 29.86 in 10.0 mi East 10.4 mph - N/A   Clear
11:53 AM 88.0 °F 48.9 °F 26% 29.86 in 10.0 mi East 8.1 mph - N/A   Clear
12:53 PM 90.0 °F 52.0 °F 27% 29.84 in 10.0 mi Variable 3.5 mph - N/A   Clear
1:53 PM 93.0 °F 46.9 °F 20% 29.83 in 10.0 mi North - - N/A   Clear
2:53 PM 96.1 °F 45.0 °F 17% 29.81 in 10.0 mi South 9.2 mph - N/A   Clear
3:53 PM 96.1 °F 44.1 °F 17% 29.79 in 10.0 mi SE 8.1 mph - N/A   Clear
4:53 PM 93.0 °F 45.0 °F 19% 29.79 in 10.0 mi South 12.7 mph - N/A Thunderstorm Clear
5:13 PM 91.9 °F 46.0 °F 21% 29.84 in 10.0 mi South 10.4 mph - N/A   Clear
5:53 PM 89.1 °F 46.9 °F 23% 29.80 in 10.0 mi West 5.8 mph - N/A   Clear
6:53 PM 89.1 °F 45.0 °F 22% 29.78 in 10.0 mi Calm Calm - N/A   Clear
7:53 PM 84.0 °F 46.9 °F 27% 29.78 in 10.0 mi ESE 6.9 mph - N/A   Clear
8:53 PM 82.0 °F 50.0 °F 33% 29.79 in 10.0 mi SSE 9.2 mph - N/A   Clear
9:53 PM 82.0 °F 51.1 °F 34% 29.81 in 10.0 mi SSE 11.5 mph - N/A   Clear
10:53 PM 75.9 °F 57.9 °F 54% 29.81 in 10.0 mi SE 12.7 mph - N/A   Clear
11:53 PM 75.0 °F 57.9 °F 55% 29.83 in 10.0 mi SSE 6.9 mph - N/A   Partly Cloudy